{"data":{"norad_id":65799,"intl_designator":"2025-218J","name":"STARLINK-35357","alt_names":[],"object_type":"PAYLOAD","status":"ACTIVE","operator":null,"country":"US","launch_date":"2025-09-26","launch_site_code":"AFWTR","launch_vehicle":null,"mission":null,"orbit_class":"UNKNOWN","rcs_meters":null,"size_class":null,"mass_kg":null,"dimensions":null,"purposes":["comms"],"wikipedia_slug":null,"has_3d_model":false,"image_url":null,"decayed_at":null,"tle_current":{"epoch":"2026-05-25T03:39:07.627104Z","epoch_age_seconds":61601,"freshness":"FRESH","line1":"1 65799U 25218J   26145.15217161  .00008351  00000+0  58218-3 0  9999","line2":"2 65799  97.4502   7.9195 0002520  86.2164 273.9351 15.05647767 36470","mean_motion":15.05647767,"eccentricity":0.000252,"inclination_deg":97.4502,"raan_deg":7.9195,"arg_perigee_deg":86.2164,"mean_anomaly_deg":273.9351,"bstar":0.00058218,"rev_number":3647,"period_min":95.639898757277,"perigee_km":547.7722344928,"apogee_km":551.26377261459,"semimajor_km":6927.6550035537,"source":"CELESTRAK","updated_at":"2026-05-25T13:38:20.937554Z"}}}